Home   Weather   Livonia   Past weeks

Flag for USA Past Weather in Livonia, Michigan, USA — Yesterday and Last 2 Weeks

Now
55 °F

Cloudy.


Feels Like: 54 °F
Forecast: 53 / 79 °F
Wind: 6 mph from East

Location: Detroit Metropolitan Wayne County Airport

Current Time: Apr 26, 2017 at 7:54:34 am

Latest Report: Apr 26, 2017 at 6:53 am


Visibility: 8 mi

Pressure: 29.69 "Hg

Humidity: 93%

Dew Point: 53 °F

Location of LivoniaLocation

Past Weather in Livonia — Graph

°F

Livonia Temperature Yesterday

Maximum temperature yesterday: 71 °F (at 5:53 pm)
Minimum temperature yesterday: 51 °F (at 4:53 am)
Average temperature yesterday: 59 °F

High & Low Weather Summary for the Past Weeks

 TemperatureHumidityPressure
High83 °F (Apr 15, 3:53 pm)100% (Apr 20, 10:53 pm)30.50 "Hg (Apr 20, 10:53 pm)
Low38 °F (Apr 23, 4:53 am)24% (Apr 23, 7:53 pm)29.69 "Hg (Apr 26, 3:53 am)
Average56 °F63%30.09 "Hg
* Reported Apr 11 5:53 am — Apr 26 5:53 am, Livonia, Weather by CustomWeather, © 2017

Note: Actual official high and low records may vary slightly from our data, if they occured in-between our weather recording intervals... More about our weather records

Advertising

Livonia Weather History for the Previous 24 Hours

Scroll right to see more
 ConditionsComfort  
Time TempWeatherWind HumidityBarometerVisibility
5:53 am
Wed, Apr 26
55 °FPartly cloudy.7 mph93%29.69 "Hg10 mi
4:53 am58 °FPartly cloudy.5 mph87%29.70 "Hg10 mi
3:53 am57 °FPassing clouds.5 mph87%29.69 "Hg10 mi
2:53 am56 °FPassing clouds.5 mph87%29.72 "Hg9 mi
1:53 am55 °FPartly cloudy.5 mph87%29.74 "Hg9 mi
12:53 am56 °FPassing clouds.6 mph81%29.73 "Hg9 mi
11:53 pm
Tue, Apr 25
56 °FPassing clouds.3 mph81%29.74 "Hg10 mi
10:53 pm57 °FPassing clouds.7 mph81%29.74 "Hg10 mi
9:53 pm59 °FPassing clouds.9 mph78%29.73 "Hg10 mi
8:53 pm61 °FPassing clouds.12 mph72%29.72 "Hg10 mi
7:53 pm64 °FPartly sunny.13 mph68%29.73 "Hg10 mi
6:53 pm70 °FPartly sunny.9 mph59%29.73 "Hg10 mi
5:53 pm71 °FPartly sunny.8 mph57%29.75 "Hg10 mi
4:53 pm70 °FPartly sunny.9 mph57%29.76 "Hg10 mi
3:53 pm68 °FPartly sunny.10 mph59%29.77 "Hg10 mi
2:53 pm68 °FScattered clouds.10 mph59%29.79 "Hg10 mi
1:53 pm66 °FBroken clouds.13 mph61%29.81 "Hg10 mi
12:53 pm63 °FBroken clouds.10 mph63%29.85 "Hg10 mi
11:53 am61 °FMostly cloudy.9 mph67%29.86 "Hg10 mi
10:53 am57 °FMostly cloudy.13 mph74%29.88 "Hg10 mi
9:53 am57 °FMostly cloudy.10 mph72%29.87 "Hg10 mi
8:53 am54 °FMostly cloudy.8 mph74%29.88 "Hg10 mi
7:53 am52 °FMostly cloudy.6 mph77%29.87 "Hg10 mi
Weather by CustomWeather, © 2017

See weather overviewHow to use our weather pages